Time,TemperatureF,DewpointF,PressureIn,WindDirection,WindDirectionDegrees,WindSpeedMPH,WindSpeedGustMPH,Humidity,HourlyPrecipIn,Conditions,Clouds,dailyrainin,SoftwareType,DateUTC
2013-03-12 00:14:00,32.8,29.0,29.87,West,279,6.0,-999.0,87,-99.99,,,0.01,weatherlink.com 1.10,2013-03-12 05:14:00,
2013-03-12 00:29:00,32.8,29.0,29.87,WNW,284,6.0,-999.0,87,-99.99,,,0.01,weatherlink.com 1.10,2013-03-12 05:29:00,
2013-03-12 00:44:00,32.7,29.0,29.88,WNW,286,10.0,-999.0,87,-99.99,,,0.01,weatherlink.com 1.10,2013-03-12 05:44:00,
2013-03-12 00:59:00,32.6,30.0,29.88,WSW,257,4.0,-999.0,88,-99.99,,,0.01,weatherlink.com 1.10,2013-03-12 05:59:00,
2013-03-12 01:13:00,32.6,29.0,29.88,West,277,5.0,-999.0,87,-99.99,,,0.01,weatherlink.com 1.10,2013-03-12 06:13:00,
2013-03-12 01:29:00,32.5,29.0,29.88,West,272,7.0,-999.0,87,-99.99,,,0.00,weatherlink.com 1.10,2013-03-12 06:29:00,
2013-03-12 01:44:00,32.6,29.0,29.89,West,263,2.0,-999.0,86,-99.99,,,0.00,weatherlink.com 1.10,2013-03-12 06:44:00,
2013-03-12 01:59:00,32.4,29.0,29.90,WSW,241,3.0,-999.0,87,-99.99,,,0.00,weatherlink.com 1.10,2013-03-12 06:59:00,
2013-03-12 02:14:00,32.3,29.0,29.89,West,269,4.0,-999.0,87,-99.99,,,0.00,weatherlink.com 1.10,2013-03-12 07:14:00,
2013-03-12 02:29:00,32.2,29.0,29.90,West,276,3.0,-999.0,87,-99.99,,,0.00,weatherlink.com 1.10,2013-03-12 07:29:00,
2013-03-12 02:44:00,32.1,28.0,29.90,West,271,4.0,-999.0,86,-99.99,,,0.00,weatherlink.com 1.10,2013-03-12 07:44:00,
2013-03-12 02:59:00,32.1,28.0,29.90,WSW,257,6.0,-999.0,85,-99.99,,,0.00,weatherlink.com 1.10,2013-03-12 07:59:00,
2013-03-12 03:14:00,31.9,27.0,29.91,West,281,6.0,-999.0,83,-99.99,,,0.00,weatherlink.com 1.10,2013-03-12 08:14:00,
2013-03-12 03:29:00,31.8,28.0,29.91,WNW,283,3.0,-999.0,84,-99.99,,,0.00,weatherlink.com 1.10,2013-03-12 08:29:00,
2013-03-12 03:44:00,31.7,28.0,29.90,West,279,2.0,-999.0,85,-99.99,,,0.00,weatherlink.com 1.10,2013-03-12 08:44:00,
2013-03-12 03:59:00,31.6,28.0,29.91,WSW,248,9.0,-999.0,86,-99.99,,,0.00,weatherlink.com 1.10,2013-03-12 08:59:00,
2013-03-12 04:14:00,31.5,28.0,29.91,WNW,293,5.0,-999.0,86,-99.99,,,0.00,weatherlink.com 1.10,2013-03-12 09:14:00,
2013-03-12 04:29:00,31.3,27.0,29.91,West,279,6.0,-999.0,84,-99.99,,,0.00,weatherlink.com 1.10,2013-03-12 09:29:00,
2013-03-12 04:44:00,31.2,27.0,29.91,WNW,284,0.0,-999.0,84,-99.99,,,0.00,weatherlink.com 1.10,2013-03-12 09:44:00,
2013-03-12 04:59:00,31.1,27.0,29.92,West,273,5.0,-999.0,84,-99.99,,,0.00,weatherlink.com 1.10,2013-03-12 09:59:00,
2013-03-12 05:14:00,31.1,27.0,29.92,West,269,9.0,-999.0,83,-99.99,,,0.00,weatherlink.com 1.10,2013-03-12 10:14:00,
2013-03-12 05:29:00,30.7,26.0,29.92,WNW,295,7.0,-999.0,81,-99.99,,,0.00,weatherlink.com 1.10,2013-03-12 10:29:00,
2013-03-12 05:44:00,30.5,25.0,29.93,WNW,293,6.0,-999.0,79,-99.99,,,0.00,weatherlink.com 1.10,2013-03-12 10:44:00,
2013-03-12 05:59:00,30.4,24.0,29.93,West,266,8.0,-999.0,78,-99.99,,,0.00,weatherlink.com 1.10,2013-03-12 10:59:00,
2013-03-12 06:15:00,30.3,24.0,29.94,West,268,4.0,-999.0,78,-99.99,,,0.00,weatherlink.com 1.10,2013-03-12 11:15:00,
2013-03-12 06:30:00,30.3,25.0,29.96,West,274,6.0,-999.0,80,-99.99,,,0.00,weatherlink.com 1.10,2013-03-12 11:30:00,
2013-03-12 06:45:00,30.1,24.0,29.96,NNW,328,10.0,-999.0,78,-99.99,,,0.00,weatherlink.com 1.10,2013-03-12 11:45:00,
2013-03-12 07:00:00,30.1,24.0,29.96,West,278,5.0,-999.0,79,-99.99,,,0.00,weatherlink.com 1.10,2013-03-12 12:00:00,
2013-03-12 07:15:00,30.1,24.0,29.96,West,278,3.0,-999.0,79,-99.99,,,0.00,weatherlink.com 1.10,2013-03-12 12:15:00,
2013-03-12 07:30:00,30.2,25.0,29.96,WNW,295,6.0,-999.0,80,-99.99,,,0.00,weatherlink.com 1.10,2013-03-12 12:30:00,
2013-03-12 07:45:00,30.1,25.0,29.97,WNW,284,4.0,-999.0,81,-99.99,,,0.00,weatherlink.com 1.10,2013-03-12 12:45:00,
2013-03-12 08:00:00,30.0,24.0,29.96,WNW,284,2.0,-999.0,79,-99.99,,,0.00,weatherlink.com 1.10,2013-03-12 13:00:00,
2013-03-12 08:15:00,30.0,24.0,29.96,West,278,5.0,-999.0,78,-99.99,,,0.00,weatherlink.com 1.10,2013-03-12 13:15:00,
2013-03-12 08:30:00,30.0,24.0,29.96,West,280,12.0,-999.0,79,-99.99,,,0.00,weatherlink.com 1.10,2013-03-12 13:30:00,
2013-03-12 08:45:00,30.0,25.0,29.96,WSW,252,2.0,-999.0,80,-99.99,,,0.00,weatherlink.com 1.10,2013-03-12 13:45:00,
2013-03-12 09:00:00,30.1,25.0,29.98,West,265,4.0,-999.0,80,-99.99,,,0.00,weatherlink.com 1.10,2013-03-12 14:00:00,
2013-03-12 09:15:00,30.5,25.0,29.99,WSW,258,4.0,-999.0,79,-99.99,,,0.00,weatherlink.com 1.10,2013-03-12 14:15:00,
2013-03-12 09:30:00,30.8,26.0,29.99,West,259,6.0,-999.0,81,-99.99,,,0.00,weatherlink.com 1.10,2013-03-12 14:30:00,
2013-03-12 09:45:00,31.1,25.0,29.99,WSW,251,4.0,-999.0,79,-99.99,,,0.00,weatherlink.com 1.10,2013-03-12 14:45:00,
2013-03-12 10:00:00,31.6,25.0,30.00,WSW,241,3.0,-999.0,78,-99.99,,,0.00,weatherlink.com 1.10,2013-03-12 15:00:00,
2013-03-12 10:15:00,32.1,26.0,30.01,West,265,10.0,-999.0,77,-99.99,,,0.00,weatherlink.com 1.10,2013-03-12 15:15:00,
2013-03-12 10:30:00,32.7,25.0,30.01,SW,232,13.0,-999.0,73,-99.99,,,0.00,weatherlink.com 1.10,2013-03-12 15:30:00,
2013-03-12 10:45:00,32.6,25.0,30.00,West,261,11.0,-999.0,73,-99.99,,,0.00,weatherlink.com 1.10,2013-03-12 15:45:00,
2013-03-12 11:00:00,33.3,26.0,30.01,SW,227,15.0,-999.0,73,-99.99,,,0.00,weatherlink.com 1.10,2013-03-12 16:00:00,
2013-03-12 11:16:00,34.0,27.0,30.01,WSW,244,6.0,-999.0,74,-99.99,,,0.00,weatherlink.com 1.10,2013-03-12 16:16:00,
2013-03-12 11:31:00,34.7,27.0,30.00,West,263,6.0,-999.0,73,-99.99,,,0.00,weatherlink.com 1.10,2013-03-12 16:31:00,
2013-03-12 11:46:00,34.9,26.0,30.00,WSW,251,10.0,-999.0,70,-99.99,,,0.00,weatherlink.com 1.10,2013-03-12 16:46:00,
2013-03-12 12:02:00,35.7,27.0,30.00,WSW,245,4.0,-999.0,71,-99.99,,,0.00,weatherlink.com 1.10,2013-03-12 17:02:00,
2013-03-12 12:16:00,36.2,27.0,30.00,WSW,240,16.0,-999.0,70,-99.99,,,0.00,weatherlink.com 1.10,2013-03-12 17:16:00,
2013-03-12 13:02:00,36.2,27.0,30.01,West,260,10.0,-999.0,68,-99.99,,,0.00,weatherlink.com 1.10,2013-03-12 18:02:00,
2013-03-12 13:31:00,36.7,27.0,30.00,West,277,15.0,-999.0,69,-99.99,,,0.00,weatherlink.com 1.10,2013-03-12 18:31:00,
2013-03-12 14:16:00,37.1,27.0,30.00,West,269,12.0,-999.0,68,-99.99,,,0.00,weatherlink.com 1.10,2013-03-12 19:16:00,
2013-03-12 14:31:00,37.5,27.0,30.00,WNW,283,12.0,-999.0,67,-99.99,,,0.00,weatherlink.com 1.10,2013-03-12 19:31:00,
2013-03-12 14:46:00,37.8,28.0,30.00,West,275,15.0,-999.0,68,-99.99,,,0.00,weatherlink.com 1.10,2013-03-12 19:46:00,
2013-03-12 15:02:00,37.7,28.0,30.00,WNW,284,10.0,-999.0,69,-99.99,,,0.00,weatherlink.com 1.10,2013-03-12 20:02:00,
2013-03-12 15:31:00,38.8,30.0,29.99,West,265,9.0,-999.0,70,-99.99,,,0.00,weatherlink.com 1.10,2013-03-12 20:31:00,
2013-03-12 16:02:00,39.8,29.0,29.99,WSW,251,7.0,-999.0,66,-99.99,,,0.00,weatherlink.com 1.10,2013-03-12 21:02:00,
2013-03-12 16:16:00,39.2,29.0,29.99,WSW,248,2.0,-999.0,67,-99.99,,,0.00,weatherlink.com 1.10,2013-03-12 21:16:00,
2013-03-12 16:31:00,39.1,30.0,29.99,West,269,6.0,-999.0,69,-99.99,,,0.00,weatherlink.com 1.10,2013-03-12 21:31:00,
2013-03-12 17:02:00,37.0,31.0,30.00,West,269,7.0,-999.0,79,-99.99,,,0.00,weatherlink.com 1.10,2013-03-12 22:02:00,
2013-03-12 17:16:00,36.3,33.0,29.99,West,264,7.0,-999.0,86,-99.99,,,0.00,weatherlink.com 1.10,2013-03-12 22:16:00,
2013-03-12 17:31:00,36.5,33.0,29.99,West,278,7.0,-999.0,86,-99.99,,,0.00,weatherlink.com 1.10,2013-03-12 22:31:00,
2013-03-12 17:46:00,34.4,31.0,30.00,WSW,258,4.0,-999.0,88,-99.99,,,0.00,weatherlink.com 1.10,2013-03-12 22:46:00,
2013-03-12 18:02:00,34.4,32.0,30.00,West,268,4.0,-999.0,91,-99.99,,,0.01,weatherlink.com 1.10,2013-03-12 23:02:00,
2013-03-12 18:16:00,34.8,33.0,30.00,West,265,0.0,-999.0,91,-99.99,,,0.01,weatherlink.com 1.10,2013-03-12 23:16:00,
2013-03-12 18:31:00,35.1,31.0,30.01,NW,304,17.0,-999.0,84,-99.99,,,0.01,weatherlink.com 1.10,2013-03-12 23:31:00,
2013-03-12 18:46:00,34.8,30.0,30.00,West,267,10.0,-999.0,82,-99.99,,,0.01,weatherlink.com 1.10,2013-03-12 23:46:00,
2013-03-12 19:16:00,34.2,30.0,30.02,WNW,287,4.0,-999.0,83,-99.99,,,0.01,weatherlink.com 1.10,2013-03-13 00:16:00,
2013-03-12 19:46:00,33.5,29.0,30.02,WNW,300,0.0,-999.0,83,-99.99,,,0.01,weatherlink.com 1.10,2013-03-13 00:46:00,
2013-03-12 20:02:00,33.8,29.0,30.03,West,279,4.0,-999.0,82,-99.99,,,0.01,weatherlink.com 1.10,2013-03-13 01:02:00,
2013-03-12 20:17:00,34.4,29.0,30.03,West,264,6.0,-999.0,80,-99.99,,,0.01,weatherlink.com 1.10,2013-03-13 01:17:00,
2013-03-12 20:32:00,34.1,29.0,30.03,WNW,290,11.0,-999.0,81,-99.99,,,0.01,weatherlink.com 1.10,2013-03-13 01:32:00,
2013-03-12 20:47:00,32.5,29.0,30.04,West,265,3.0,-999.0,87,-99.99,,,0.01,weatherlink.com 1.10,2013-03-13 01:47:00,
2013-03-12 21:02:00,32.2,29.0,30.04,WNW,300,5.0,-999.0,89,-99.99,,,0.01,weatherlink.com 1.10,2013-03-13 02:02:00,
2013-03-12 21:17:00,30.6,27.0,30.05,WNW,302,5.0,-999.0,87,-99.99,,,0.01,weatherlink.com 1.10,2013-03-13 02:17:00,
2013-03-12 21:47:00,30.9,26.0,30.05,NW,325,5.0,-999.0,82,-99.99,,,0.01,weatherlink.com 1.10,2013-03-13 02:47:00,
2013-03-12 22:02:00,31.2,26.0,30.05,West,279,3.0,-999.0,82,-99.99,,,0.01,weatherlink.com 1.10,2013-03-13 03:02:00,
2013-03-12 22:17:00,31.4,27.0,30.05,WNW,302,4.0,-999.0,82,-99.99,,,0.01,weatherlink.com 1.10,2013-03-13 03:17:00,
2013-03-12 22:32:00,31.4,25.0,30.05,NNW,331,19.0,-999.0,78,-99.99,,,0.01,weatherlink.com 1.10,2013-03-13 03:32:00,
2013-03-12 22:47:00,31.2,25.0,30.06,WNW,303,4.0,-999.0,79,-99.99,,,0.01,weatherlink.com 1.10,2013-03-13 03:47:00,
2013-03-12 23:02:00,30.8,25.0,30.06,NW,308,6.0,-999.0,78,-99.99,,,0.01,weatherlink.com 1.10,2013-03-13 04:02:00,
2013-03-12 23:17:00,30.2,23.0,30.07,WNW,286,5.0,-999.0,75,-99.99,,,0.01,weatherlink.com 1.10,2013-03-13 04:17:00,
2013-03-12 23:32:00,29.4,23.0,30.07,West,281,7.0,-999.0,78,-99.99,,,0.01,weatherlink.com 1.10,2013-03-13 04:32:00,
2013-03-12 23:47:00,29.0,23.0,30.07,WNW,286,12.0,-999.0,79,-99.99,,,0.01,weatherlink.com 1.10,2013-03-13 04:47:00,